Dewpoint
66 67 68 69 69 70 70 71 72 72 73 69 64 61 58 57 56 56 56 57 57 58 58 57 56 54 52 52 52 52 51 53 48 49 50 53 55 55 55 55 57 57 57
67 67 68 70 71 71 71 72 72 72 69 63 60 57 56 55 54 54 54 56 57 57 57 55 54 50 51 51 50 50 50 51 50 49 52 52 54 55 54 55 55 50 54
68 68 70 70 71 71 72 72 72 69 63 59 56 55 54 52 52 52 54 55 56 57 57 54 52 51 50 49 50 48 49 49 52 50 50 51 50 51 52 53 53 53 51
69 70 70 70 71 71 72 72 70 65 59 56 54 53 51 51 51 53 54 56 57 57 56 54 52 50 50 49 47 48 47 47 48 45 45 46 45 49 53 51 46 48 49
70 70 70 71 71 72 72 69 65 61 56 54 52 51 52 53 51 53 54 55 55 55 54 52 50 49 48 48 46 48 47 46 45 43 43 43 42 43 47 49 47 46 48
69 70 70 71 72 71 69 65 61 57 55 54 51 50 51 50 56 55 54 55 54 52 51 49 48 46 48 47 47 48 48 47 47 46 45 45 46 47 49 45 48 47 44
69 70 70 71 70 69 66 62 58 57 54 52 50 51 50 53 55 55 55 53 52 51 50 49 47 46 48 47 46 45 45 45 45 48 46 46 46 48 48 47 48 48 46
69 70 71 70 69 65 64 61 59 56 53 50 50 50 50 52 53 53 53 52 52 51 50 49 48 50 49 50 45 43 43 43 44 44 48 47 47 48 50 49 49 49 47
69 70 70 69 66 64 62 60 59 57 54 51 50 49 49 51 51 50 50 50 49 49 49 49 50 49 49 47 44 43 43 42 43 44 44 45 46 46 46 45 43 42 42
70 70 70 68 65 64 62 61 59 56 53 51 49 49 48 50 50 49 49 47 47 46 47 46 46 49 47 46 44 43 42 42 42 42 42 43 44 45 44 46 43 42 42
70 70 68 66 65 64 62 60 58 55 53 52 50 48 48 49 49 48 48 47 46 45 43 43 43 47 45 44 44 44 43 44 41 40 40 41 42 42 42 44 45 43 42
68 67 66 65 63 62 61 59 58 56 53 51 49 48 46 48 47 47 48 47 47 44 43 43 44 45 43 43 43 44 44 41 39 39 39 39 39 40 41 43 46 47 46
66 65 64 64 63 62 60 58 57 57 54 51 49 48 47 46 43 45 46 46 46 43 44 45 46 43 42 42 44 44 40 39 38 37 38 38 39 40 43 44 46 49 49
64 63 62 61 61 60 59 59 58 56 55 53 52 50 48 46 40 40 41 41 41 40 41 41 41 40 41 41 40 40 38 39 38 37 37 39 40 40 41 41 42 42 43
63 62 61 59 59 56 53 56 57 56 55 55 54 52 48 46 43 39 40 40 40 41 42 39 39 39 39 39 38 39 37 38 37 36 37 37 38 39 39 40 41 41 42
61 60 59 55 53 52 48 44 44 45 44 45 47 49 45 44 39 38 39 39 39 41 39 38 38 39 39 38 37 37 36 37 36 36 37 37 37 37 38 39 40 41 42
61 58 55 52 49 47 47 46 43 41 42 42 42 41 38 38 39 38 38 39 39 39 38 38 39 39 39 38 36 36 35 36 37 36 36 36 36 36 37 38 39 41 41
59 54 54 50 47 44 44 43 41 41 41 39 39 39 38 38 38 38 38 37 37 38 38 39 39 39 38 37 36 35 35 35 35 35 35 35 35 36 36 37 38 40 41
56 54 52 48 45 42 40 39 39 39 38 38 38 38 39 38 38 38 37 39 37 37 38 39 40 39 37 36 36 36 36 34 35 34 34 34 35 35 36 37 38 40 41
55 51 48 45 42 39 38 37 36 37 37 38 38 37 38 38 39 39 40 39 38 36 38 38 39 37 36 36 36 35 34 34 34 34 34 34 35 36 36 37 38 39 39
51 48 48 45 42 40 38 37 37 38 38 37 38 38 39 38 38 38 38 37 37 38 38 38 36 34 35 35 35 34 33 33 33 33 34 34 35 36 37 39 39 39 39
50 48 46 45 42 40 38 37 38 39 39 39 39 39 38 37 37 38 39 37 37 39 39 38 34 33 33 33 34 33 31 31 33 33 33 34 35 37 38 38 38 38 39
50 48 47 45 43 42 40 39 40 40 41 41 41 39 38 38 38 38 37 37 39 39 39 37 32 31 32 33 33 32 29 30 32 32 33 34 36 37 38 37 37 37 37
50 48 47 46 44 43 42 42 43 42 43 43 42 39 38 37 36 38 37 38 39 39 37 34 32 30 32 32 32 30 30 32 32 32 34 35 37 37 37 37 37 37 36
52 50 48 47 45 45 44 44 44 45 45 45 42 38 36 34 35 35 36 38 39 38 36 33 32 32 32 32 32 30 32 30 32 32 35 38 38 38 37 36 36 35 35
50 50 49 48 46 45 45 44 44 45 44 43 40 37 34 33 34 35 37 39 38 36 34 32 32 32 31 31 31 31 30 30 32 31 36 37 36 35 35 36 36 35 36
Lifted_Index
0 -0 -1 -3 -4 -4 -5 -5 -6 -7 -7 -7 -7 -7 -7 -6 -4 -1 2 6 7 7 8 8 9 10 10 11 10 10 9 9 8 7 7 6 6 5 4 3 2 2 1
0 -1 -2 -3 -4 -5 -5 -6 -7 -7 -7 -7 -7 -7 -6 -5 -3 1 5 7 7 7 8 8 9 10 10 10 9 9 9 8 8 7 6 6 5 5 4 4 3 3 2
-1 -1 -3 -4 -5 -6 -6 -7 -7 -7 -7 -7 -7 -6 -5 -4 -1 4 7 8 8 7 8 9 10 10 10 9 8 8 8 7 7 6 6 6 6 6 5 5 5 5 4
-2 -3 -4 -5 -6 -6 -7 -7 -7 -7 -7 -7 -7 -6 -4 -2 3 7 9 8 8 8 9 10 11 10 9 8 8 8 8 8 8 8 8 8 9 9 8 8 8 7 5
-3 -4 -5 -6 -6 -7 -7 -7 -7 -8 -8 -7 -6 -5 -3 1 6 9 9 9 9 9 10 11 11 10 9 9 9 9 9 9 10 10 10 10 11 10 10 9 8 7 5
-4 -5 -5 -6 -6 -6 -7 -7 -7 -8 -8 -7 -6 -4 -1 4 8 10 10 10 10 11 11 11 11 10 10 10 11 12 12 12 12 11 11 11 11 11 10 9 7 6 6
-4 -5 -5 -5 -6 -6 -7 -7 -8 -8 -7 -6 -5 -3 2 7 10 11 11 11 11 11 11 11 10 10 11 12 13 14 14 14 13 12 12 11 11 10 9 8 7 6 6
-4 -4 -5 -5 -5 -6 -7 -7 -8 -8 -7 -6 -4 -0 5 9 11 12 12 12 11 11 12 11 11 11 12 13 14 14 14 14 14 13 12 11 10 9 8 7 7 6 6
-4 -4 -4 -4 -5 -6 -7 -8 -8 -7 -6 -5 -2 3 7 10 12 13 13 12 12 12 12 12 12 13 14 14 14 14 13 14 14 13 11 10 9 8 8 7 7 7 6
-4 -4 -4 -4 -5 -6 -7 -8 -8 -7 -6 -4 1 6 8 10 12 13 13 12 12 13 14 14 15 15 16 15 14 13 13 13 13 12 10 9 8 8 8 7 7 7 7
-4 -4 -4 -4 -5 -6 -7 -8 -8 -7 -6 -2 3 7 8 10 11 13 13 13 14 15 16 16 17 17 16 15 14 13 13 13 12 11 10 9 8 8 7 7 7 7 7
-4 -4 -4 -5 -5 -6 -7 -8 -8 -7 -4 1 5 8 8 9 11 13 14 14 15 16 16 17 17 17 16 15 14 14 13 13 13 11 10 9 9 8 7 7 7 7 6
-4 -4 -5 -5 -6 -7 -7 -8 -7 -6 -2 3 6 8 9 9 11 13 15 15 16 16 17 17 17 16 16 15 14 14 14 13 12 11 10 10 9 8 8 7 7 7 6
-5 -5 -5 -6 -6 -6 -7 -7 -6 -3 1 5 7 8 9 10 11 13 15 16 16 16 17 17 16 16 15 15 14 14 13 13 12 11 10 10 9 9 8 8 7 7 7
-5 -5 -6 -6 -6 -6 -6 -5 -3 1 4 6 7 8 9 10 12 14 16 16 16 16 17 16 16 15 15 14 14 13 13 13 12 11 10 10 10 9 9 8 7 7 7
-6 -6 -6 -6 -7 -6 -6 -4 -0 3 5 6 7 8 9 11 13 15 16 17 16 17 17 16 16 15 14 13 13 13 13 12 12 11 11 10 10 10 9 8 8 7 7
-6 -6 -6 -6 -6 -6 -5 -2 2 5 6 8 9 10 11 13 15 16 17 16 16 17 17 16 15 14 14 13 12 12 12 12 12 12 12 11 11 10 10 9 8 7 7
-6 -6 -6 -6 -6 -5 -3 0 4 7 8 10 11 12 13 15 16 17 16 16 16 17 16 16 15 14 14 13 13 13 13 13 12 12 12 12 12 11 10 9 8 8 8
-6 -5 -5 -6 -5 -4 -1 3 6 8 10 11 12 12 14 15 16 16 16 17 17 17 16 16 15 14 14 14 14 13 13 13 13 13 13 13 12 11 10 9 9 8 8
-5 -5 -5 -5 -4 -2 1 5 7 9 10 11 11 12 12 13 14 15 16 17 17 17 16 16 15 14 14 14 14 14 14 13 13 13 13 13 12 11 10 9 9 8 8
-5 -4 -4 -4 -3 -1 3 6 7 9 11 11 11 11 11 12 13 14 16 17 17 16 16 15 15 14 14 15 15 14 14 14 14 14 13 13 12 11 10 9 9 9 9
-4 -3 -3 -3 -2 1 5 7 8 10 11 11 10 10 11 12 13 14 15 16 16 16 16 15 15 14 15 15 15 15 15 14 14 14 13 12 11 10 10 9 9 9 9
-3 -3 -3 -2 -0 3 6 8 9 10 10 10 10 10 10 11 12 13 15 16 16 16 16 15 14 14 15 16 16 16 15 15 14 13 13 12 11 10 10 9 9 9 9
-3 -2 -2 -2 1 5 7 8 9 10 10 10 9 9 10 11 12 13 14 15 16 16 16 15 14 14 15 16 16 16 16 15 14 13 12 11 11 10 10 10 10 9 9
-2 -2 -2 -1 2 5 7 8 9 10 9 9 9 9 10 10 11 12 14 15 15 15 15 15 14 14 15 16 16 16 16 15 14 13 12 11 11 10 10 10 10 10 10
-2 -2 -2 0 3 5 6 8 9 9 9 9 9 9 9 10 11 12 14 15 15 15 15 14 14 14 15 16 16 16 16 15 13 12 12 11 11 11 10 10 10 10 10